Temp
20 20 20 21 21 22 23 24 24 24 25 25 26 27 27 28 28 26 29 32 30 27 26 23 24 24 25 27 28 29 32 33 33 33 33 32 31 31 31 30 30 30 30 29 25
19 19 20 21 21 22 23 23 24 24 25 26 26 27 28 28 26 26 32 32 31 28 25 25 26 25 28 29 30 31 33 34 34 35 34 32 32 31 31 30 30 29 27 26 25
18 18 19 20 21 22 23 23 24 24 25 26 27 27 28 28 28 33 32 32 32 30 29 28 28 29 30 31 32 31 34 35 35 35 35 34 32 32 31 30 31 30 28 27 26
18 18 19 20 21 22 22 23 24 25 25 26 27 27 28 27 32 32 31 31 30 30 29 30 29 31 32 33 33 33 34 34 36 34 34 33 33 32 32 34 33 31 29 27 27
18 18 18 19 20 21 22 23 24 25 25 26 27 27 28 29 32 32 31 31 30 30 31 32 32 33 34 34 33 33 35 36 35 34 34 33 33 33 31 32 31 30 28 28 28
17 18 18 19 19 21 22 24 24 25 26 27 27 27 26 29 31 31 31 30 29 29 30 31 33 33 34 33 34 35 35 35 34 33 34 33 33 32 34 31 30 29 28 29 28
17 17 18 18 19 21 22 24 25 25 26 27 27 26 26 30 31 30 30 30 30 30 32 31 32 34 33 34 34 34 34 34 34 32 33 34 33 32 33 31 30 30 29 29 28
16 17 18 18 19 21 23 24 25 26 27 27 26 25 29 30 30 29 29 30 31 31 31 31 31 33 33 33 33 34 33 35 34 33 32 34 36 34 33 32 31 30 30 28 28
15 16 17 18 19 21 23 24 25 25 25 24 23 25 30 30 29 31 31 32 30 30 30 31 32 32 32 33 34 33 35 34 35 33 33 33 35 32 32 32 31 30 30 29 29
14 15 17 18 19 20 23 25 24 23 23 22 23 27 29 32 31 31 31 30 32 32 32 32 31 32 32 34 34 33 33 34 33 34 32 33 34 35 31 31 32 31 30 30 30
14 14 16 18 19 20 23 24 25 26 23 28 28 27 29 30 30 31 31 31 32 33 33 30 33 33 34 33 33 32 32 32 34 34 34 35 34 35 33 31 31 31 30 30 31
14 14 15 18 19 20 20 22 20 19 24 25 24 25 26 28 30 31 31 33 32 32 30 31 32 32 31 31 32 32 32 33 34 33 33 35 34 35 35 33 33 32 31 31 31
13 14 15 18 19 19 18 19 19 19 23 26 26 28 29 29 30 31 32 32 32 31 31 33 33 31 31 32 32 33 33 33 33 33 33 33 34 35 36 33 33 33 32 31 31
13 13 14 17 18 17 18 19 19 19 25 28 28 29 28 29 30 31 33 33 32 33 30 32 32 32 32 32 32 33 34 33 34 33 34 32 34 33 34 34 34 33 32 31 31
13 14 14 14 14 15 19 20 20 20 26 29 29 28 27 30 32 31 30 33 33 31 31 32 31 30 31 33 32 34 32 32 32 32 32 32 33 36 31 34 35 34 33 32 31
13 14 14 13 12 19 19 20 20 25 24 28 29 30 29 29 31 31 31 32 32 31 30 33 31 32 34 33 32 31 32 30 29 32 33 32 33 36 36 35 35 32 31 31 31
14 15 12 8 17 19 19 20 24 24 26 28 29 29 29 30 30 31 31 31 32 30 31 31 32 32 32 33 31 32 32 32 32 33 33 29 31 35 35 32 30 30 30 31 30
14 16 16 16 17 16 17 23 23 25 26 26 28 28 29 29 30 31 30 31 30 31 31 31 31 32 32 33 34 32 33 33 31 32 34 28 32 35 32 29 28 27 29 31 30
15 15 13 16 16 15 21 23 24 24 25 26 28 29 29 29 29 29 31 31 32 31 32 30 31 31 31 33 34 31 32 31 30 26 32 32 32 34 33 31 28 28 27 28 28
12 10 13 15 15 15 21 22 23 23 25 26 26 27 28 29 29 29 29 30 31 30 31 31 31 32 32 32 30 33 31 32 31 30 31 32 31 34 34 33 29 28 28 26 26
10 16 15 14 15 20 22 22 22 24 24 26 26 26 27 28 28 29 29 30 30 29 29 30 31 32 31 33 33 31 32 29 31 30 33 32 33 33 32 31 29 28 27 27 26
10 19 14 15 20 15 21 21 21 25 25 26 25 26 27 27 28 29 30 30 28 29 29 30 32 31 33 31 30 32 32 32 33 30 29 31 34 30 29 28 28 28 27 27 26
13 14 14 15 20 20 19 21 22 24 25 25 25 26 26 27 27 28 29 29 28 28 29 28 30 31 32 31 30 32 30 30 28 29 29 32 34 28 27 26 26 27 27 26 26
12 18 18 17 15 19 21 22 22 23 24 24 25 26 26 27 26 28 29 29 28 27 23 27 26 30 33 33 32 31 30 29 31 32 30 32 33 31 28 27 28 26 26 26 26
12 17 16 20 20 19 20 21 22 22 24 24 25 25 26 26 26 27 27 28 28 25 26 27 29 28 28 29 30 31 31 29 30 31 33 33 32 28 26 25 26 27 26 25 26
13 15 16 17 17 19 17 20 21 23 23 24 23 26 26 26 27 27 27 27 27 28 27 25 27 27 29 29 31 29 29 30 29 29 30 30 30 26 25 25 26 26 26 26 26
10 11 14 17 18 19 21 22 22 22 24 25 24 25 25 26 26 26 26 25 25 26 26 26 27 28 29 27 30 30 26 28 26 24 24 30 26 24 24 24 24 25 25 26 26
Height
825 823 820 817 814 811 809 806 802 798 795 792 790 787 784 780 777 775 773 769 772 777 782 786 791 793 794 791 788 787 796 800 794 794 787 780 786 781 779 784 783 784 785 788 794
825 823 820 817 814 811 808 805 801 798 794 790 788 785 782 778 774 772 769 767 770 774 780 784 789 792 792 786 784 788 795 790 775 774 777 777 780 780 784 787 788 787 788 790 794
826 823 819 816 813 810 807 804 800 797 793 789 786 783 780 777 774 767 767 767 770 775 778 782 784 786 788 785 781 784 789 772 768 767 766 774 779 775 783 791 780 783 787 789 793
825 822 819 816 812 808 805 802 798 794 791 788 785 782 778 776 790 767 768 769 772 775 778 781 783 787 788 788 777 788 772 771 762 762 767 775 771 777 776 770 767 774 782 787 791
825 821 818 814 811 808 804 800 796 792 790 787 785 782 779 779 772 767 768 770 773 775 776 778 781 780 786 781 780 781 769 761 760 764 764 768 774 775 775 767 768 775 783 786 790
823 820 816 812 808 805 801 798 794 791 788 786 783 782 782 787 768 767 768 770 772 773 774 775 773 772 777 779 781 770 766 763 762 766 763 771 774 773 765 766 771 774 778 783 788
821 818 815 811 807 803 799 795 791 787 784 782 781 781 780 773 766 767 768 769 770 771 771 772 772 773 774 779 771 771 778 767 763 769 767 763 778 774 762 764 770 773 774 777 784
820 817 814 809 804 801 796 792 787 783 780 778 778 780 775 764 764 765 766 767 768 769 770 770 771 772 775 770 775 780 781 786 768 768 767 766 776 760 756 762 766 769 771 775 779
819 816 812 808 803 798 792 787 782 779 777 777 778 779 773 762 762 759 762 763 765 767 769 770 771 775 775 783 789 787 791 789 778 765 769 774 771 763 759 760 762 766 766 770 774
818 814 809 805 801 796 789 783 779 779 778 778 779 782 763 760 757 757 758 761 762 765 769 771 776 781 782 784 804 798 796 788 789 773 773 775 769 757 762 763 761 763 763 764 766
815 812 807 803 799 794 787 781 781 780 778 770 771 770 762 759 757 754 755 757 759 764 778 777 783 790 781 779 781 787 793 794 774 767 774 770 767 754 757 759 759 761 762 765 761
814 810 805 801 797 793 790 788 792 796 786 768 767 766 760 762 765 753 754 758 763 775 776 783 787 776 777 781 784 785 791 788 775 768 773 769 769 753 749 749 745 750 754 755 758
814 809 804 799 795 792 792 792 791 792 790 767 759 756 753 756 756 751 751 753 761 774 775 780 774 773 778 782 785 782 787 782 783 772 769 776 774 761 740 742 739 740 742 745 749
814 810 804 798 797 794 792 792 790 789 792 769 759 749 749 749 754 739 742 748 759 766 773 774 766 772 778 781 778 789 766 770 774 785 791 777 794 769 753 746 738 736 740 742 748
813 809 805 803 800 796 793 790 788 790 812 756 751 742 745 748 741 739 737 742 757 763 767 772 772 776 779 772 770 774 766 772 774 780 784 786 789 761 764 755 738 734 734 733 736
810 806 801 801 797 791 790 789 789 799 810 763 747 748 751 746 742 738 740 738 741 758 763 760 758 760 759 758 762 765 771 780 784 778 793 786 782 764 754 746 737 741 736 731 730
805 801 798 797 792 787 789 788 799 805 770 763 757 749 750 748 746 741 748 752 757 778 776 768 764 755 754 766 764 768 778 793 797 793 792 791 789 762 740 744 744 740 734 728 726
799 793 788 786 786 786 789 789 804 781 772 758 756 751 753 746 744 743 749 754 752 753 765 779 784 760 749 754 760 767 769 782 808 800 785 794 787 758 743 743 742 739 732 726 728
792 787 784 781 781 787 789 792 780 779 767 766 757 758 752 747 747 747 744 745 738 744 762 774 775 748 747 743 746 770 776 766 789 806 791 780 768 745 736 740 741 741 737 735 738
791 786 783 780 781 787 787 784 776 772 766 764 771 761 763 754 750 749 750 741 741 739 734 751 772 750 745 743 752 752 756 776 779 806 807 786 786 764 741 740 743 742 740 743 746
791 785 782 779 783 783 783 781 775 766 766 767 768 767 760 759 753 750 750 740 737 741 741 746 752 758 750 750 751 763 764 775 771 780 784 790 774 738 739 738 740 738 739 746 748
796 784 784 783 783 793 782 779 773 763 761 761 762 762 762 757 754 749 747 739 735 736 747 741 743 759 750 743 742 744 751 753 768 788 786 777 765 736 738 740 738 736 740 747 750
797 791 785 785 782 783 781 775 770 765 763 762 762 758 754 756 762 749 743 734 733 737 742 743 750 759 757 752 750 748 751 754 764 766 781 775 761 745 748 746 745 742 742 746 748
801 784 782 784 787 780 778 774 772 761 760 758 756 753 756 756 754 751 744 736 734 735 744 739 755 748 751 742 737 752 751 754 751 759 768 757 748 745 750 748 740 740 741 748 749
802 788 788 779 778 778 776 774 771 770 757 755 754 753 752 758 756 753 745 738 734 740 741 742 750 752 748 744 739 739 742 751 754 747 747 747 750 754 757 752 742 737 737 742 745
800 794 789 783 780 776 780 772 768 761 760 754 757 744 747 752 747 751 745 745 745 738 743 745 752 750 750 746 738 749 748 745 749 754 750 750 752 753 755 750 743 738 740 741 743
803 801 797 782 778 777 769 765 761 759 747 744 746 748 747 743 739 738 738 742 743 746 746 748 750 751 756 756 746 757 763 755 760 764 766 755 759 757 756 755 749 742 738 741 741
Wind_Speed
18 19 19 20 21 20 21 20 22 24 23 24 23 25 25 25 21 6 6 5 13 27 25 22 8 9 9 4 5 2 2 2 2 5 1 8 6 6 2 6 6 7 4 5 19
20 21 21 22 22 22 22 22 23 23 24 24 24 24 25 27 13 6 4 9 16 27 23 21 13 15 3 3 3 3 2 2 2 3 4 13 9 12 5 9 6 7 4 17 21
21 21 22 23 24 24 24 24 24 25 24 24 24 25 24 22 3 0 6 15 18 23 17 12 17 8 3 3 3 2 3 5 5 8 8 10 11 10 6 8 10 11 12 18 17
21 23 24 25 25 26 26 26 26 25 24 23 23 23 23 7 1 2 10 14 21 15 18 10 9 4 3 3 4 4 8 6 5 8 8 8 8 7 14 2 6 12 17 18 17
21 23 24 25 26 26 26 27 26 25 25 23 20 19 9 4 5 2 13 16 21 13 7 7 7 4 3 3 3 8 6 6 8 5 6 9 11 6 13 2 7 15 16 17 16
23 24 25 26 28 27 27 27 26 26 25 24 18 11 2 4 3 2 13 19 15 12 5 8 4 5 4 2 4 3 10 13 5 5 7 10 7 6 6 9 12 18 19 17 17
25 26 26 28 29 28 28 28 27 27 26 21 12 3 1 12 5 6 10 12 12 10 4 5 3 3 0 3 3 4 7 8 5 3 2 7 9 13 7 14 15 17 17 17 17
25 26 28 29 29 30 29 28 28 27 20 13 2 3 7 4 8 9 11 9 9 12 6 4 3 3 3 2 1 3 2 5 2 4 1 7 8 8 12 15 17 17 16 16 18
26 26 27 29 30 30 29 28 26 13 6 3 2 2 7 3 6 9 17 7 9 9 6 1 2 2 4 3 3 1 4 3 3 3 3 4 10 5 8 14 15 17 17 16 16
27 28 28 28 29 30 29 25 7 2 2 2 1 3 5 1 1 3 8 11 4 7 4 3 2 3 2 4 9 2 2 3 6 2 4 6 17 9 7 13 16 15 17 16 16
29 29 29 27 28 29 26 5 3 3 1 5 1 4 5 9 6 3 5 9 5 4 6 1 5 7 9 6 2 2 4 7 10 3 4 12 18 20 7 13 15 14 16 16 18
28 31 31 29 28 21 10 3 6 2 8 7 11 13 15 6 6 5 7 7 6 10 5 4 10 7 3 3 4 5 8 12 11 6 6 11 15 16 14 15 19 18 19 19 19
27 30 32 28 26 4 10 3 7 3 4 7 7 7 5 13 11 13 9 5 5 8 10 11 5 4 7 5 6 7 10 12 11 0 9 3 10 9 10 12 13 14 17 20 20
26 28 31 32 5 18 3 4 18 8 3 6 5 6 5 7 6 9 18 7 4 12 8 6 4 9 6 9 8 11 10 16 10 4 4 2 5 5 8 14 13 14 14 17 17
26 26 28 27 17 6 1 13 6 3 3 2 4 1 4 8 1 8 5 7 12 9 7 8 7 9 10 11 10 9 3 4 4 7 2 6 5 4 2 10 12 8 9 15 18
27 27 29 13 12 12 11 12 4 3 8 3 1 4 4 7 3 3 6 2 2 8 3 7 1 4 8 6 13 5 1 3 2 4 7 4 5 7 4 2 10 4 6 9 14
29 30 24 15 5 5 13 2 4 6 2 1 1 1 3 4 7 8 11 12 11 9 13 6 10 4 5 7 5 5 4 3 6 6 8 3 4 8 7 5 9 15 10 8 13
34 30 18 19 6 7 3 4 9 3 9 3 4 8 3 2 4 9 8 10 5 6 6 11 9 11 9 13 7 8 5 5 9 7 7 3 4 4 1 2 6 8 5 7 11
34 15 10 5 7 9 2 10 6 6 2 6 6 4 1 1 2 5 10 11 14 13 10 7 6 3 6 5 7 6 5 2 5 2 3 2 4 10 6 5 6 6 3 5 5
21 9 5 7 4 8 4 8 3 3 3 2 2 2 2 4 1 2 6 1 4 11 4 7 5 4 2 5 4 5 9 3 1 4 6 4 4 6 9 7 5 7 4 5 7
6 4 9 5 11 2 7 6 6 7 4 2 2 4 3 3 3 2 3 3 1 2 7 8 7 5 4 7 9 4 4 3 2 2 5 8 4 6 5 5 8 7 5 8 10
5 2 4 5 2 1 3 4 2 4 3 5 2 5 7 6 4 2 2 1 1 5 8 7 6 9 14 3 0 2 3 5 4 5 1 3 5 2 5 6 6 8 6 7 4
5 3 1 4 2 3 2 3 4 7 7 3 4 7 2 4 3 3 1 2 5 4 6 7 4 7 6 4 3 5 5 4 4 2 7 4 3 6 4 5 7 10 5 7 6
3 1 2 1 1 1 1 3 4 3 7 7 7 7 4 5 3 3 1 1 3 4 3 4 2 4 11 10 3 5 7 7 4 5 7 5 2 9 13 12 10 9 7 6 5
2 1 2 2 4 4 2 3 9 5 4 4 5 14 9 5 3 4 2 3 3 3 2 0 3 3 2 3 3 3 10 10 7 2 4 6 5 7 13 13 12 9 8 10 9
2 3 4 4 3 3 3 3 5 5 6 5 8 9 15 5 5 6 3 1 1 2 2 1 1 1 3 4 6 10 6 6 4 4 1 1 3 11 9 11 11 9 7 9 9
2 3 2 3 2 2 3 3 4 4 6 10 9 5 8 9 4 1 2 2 1 3 4 3 2 1 3 3 6 6 6 3 7 8 3 2 5 14 12 11 10 11 8 9 9
Wind_Direction
1 0 357 354 353 350 346 345 343 344 341 342 345 344 341 335 331 287 232 230 168 156 152 142 142 151 181 226 219 209 299 266 200 187 144 155 168 174 216 166 175 187 170 146 153
359 359 354 350 348 346 343 342 341 342 339 338 341 340 339 333 324 239 203 192 168 160 148 157 158 163 211 256 188 242 277 249 226 212 208 174 179 172 182 173 202 195 107 145 158
357 356 351 348 344 342 340 338 339 337 336 337 339 338 337 333 284 351 180 175 167 164 169 161 157 174 219 220 219 161 274 308 271 209 197 181 194 182 189 192 216 199 170 167 174
351 350 348 346 342 339 336 335 334 333 333 333 337 335 335 342 212 6 166 178 163 155 152 147 154 195 227 215 214 247 249 258 270 190 174 177 166 200 204 178 205 180 171 175 187
349 346 346 344 342 337 332 331 331 328 328 326 332 330 348 335 261 25 163 171 175 186 181 170 177 212 239 194 210 255 274 278 269 251 219 152 191 208 220 198 167 152 170 185 194
346 345 343 341 339 333 329 327 327 323 321 320 321 319 9 291 270 210 164 169 188 193 194 185 219 215 279 246 232 255 283 293 333 308 213 197 197 202 218 169 157 163 180 191 203
344 343 341 340 337 331 327 325 323 319 316 315 309 270 194 253 212 138 173 189 207 197 191 208 212 226 207 261 296 295 288 308 318 342 159 189 226 229 200 179 174 185 188 191 206
344 341 339 338 336 330 324 324 321 316 312 313 241 159 251 220 206 221 205 225 219 217 229 261 223 260 223 299 241 256 259 295 51 168 74 227 277 227 191 181 195 194 197 196 206
342 340 338 337 335 329 323 325 318 316 330 104 117 185 259 248 231 234 211 205 196 217 245 154 146 249 188 198 238 329 262 282 299 154 126 228 285 28 201 204 203 198 204 200 210
342 340 337 337 336 330 326 325 312 310 67 75 98 281 241 229 229 207 199 177 165 147 142 162 118 199 142 219 257 242 290 287 273 105 214 253 263 247 191 222 232 209 213 203 209
340 340 336 335 334 333 334 341 322 189 320 234 159 272 287 321 286 221 165 144 136 154 206 107 226 227 216 210 231 263 263 274 275 235 265 269 268 279 235 226 235 226 218 220 220
338 337 335 333 332 334 349 58 82 327 301 253 253 259 260 275 294 257 182 177 168 202 151 196 244 216 203 175 222 235 266 263 282 275 204 267 269 278 269 245 241 226 220 219 223
338 336 333 331 330 2 334 160 355 313 257 282 222 245 217 179 227 245 186 167 174 170 194 221 226 165 187 192 213 246 253 269 260 218 224 279 272 273 281 255 259 248 233 226 219
336 336 333 333 349 331 297 166 328 184 290 265 227 246 173 180 238 210 192 177 187 203 172 234 220 204 205 237 217 260 254 252 260 212 271 227 292 261 286 289 277 261 234 234 227
332 333 332 333 303 289 219 324 331 175 273 207 194 63 149 200 7 204 192 188 201 170 173 215 188 191 211 224 187 258 263 285 254 202 193 196 243 267 280 285 279 315 259 238 222
329 328 327 322 296 274 294 330 161 205 239 291 243 185 172 215 230 117 176 112 173 157 227 232 214 209 227 220 197 122 234 65 87 174 235 161 252 270 249 253 305 122 330 238 216
325 321 309 286 247 259 321 253 195 222 343 247 264 322 262 213 210 200 181 188 185 185 218 207 229 226 207 240 181 190 210 239 210 206 245 105 214 275 271 316 301 308 296 236 210
324 319 306 264 267 267 271 187 215 238 248 319 310 298 243 179 222 192 167 188 194 185 204 210 230 204 186 217 224 198 216 231 237 227 249 126 225 262 274 303 314 309 283 219 203
327 319 293 294 255 217 206 204 213 209 304 313 302 272 284 280 256 195 199 198 193 182 196 173 235 241 208 165 186 156 207 63 113 56 254 281 262 271 260 250 323 305 237 203 169
328 323 280 304 204 159 201 229 229 233 322 303 292 331 308 327 235 239 177 161 220 206 236 201 243 205 151 148 67 226 141 179 178 180 241 213 262 266 277 246 257 258 221 144 134
340 316 350 133 135 187 211 237 251 237 244 282 304 318 313 339 321 319 178 139 120 136 207 158 220 172 206 201 195 152 183 68 116 284 268 269 245 229 268 232 231 240 199 150 156
339 286 19 115 152 338 208 209 273 279 193 266 267 260 275 305 280 259 204 168 132 171 179 195 193 224 227 121 36 161 178 177 233 195 219 288 246 188 199 210 233 239 194 133 137
332 291 107 344 216 203 249 261 253 254 235 226 256 229 227 253 253 244 245 70 31 165 179 174 204 217 208 156 158 209 184 171 113 144 185 213 225 67 21 298 268 279 209 165 192
301 269 129 180 318 225 289 255 251 248 256 235 251 246 233 250 206 281 267 159 6 36 85 145 147 237 235 230 155 176 182 181 213 185 160 221 260 42 17 346 291 251 229 183 215
224 345 9 242 233 220 187 282 272 286 242 222 230 228 204 225 208 228 240 309 124 25 68 269 214 193 38 329 191 153 176 169 216 196 202 160 181 43 352 328 317 277 230 199 208
315 335 344 289 290 224 158 237 245 233 226 253 230 228 217 234 220 202 184 172 25 3 92 345 151 176 100 35 130 93 62 158 107 134 38 34 114 11 352 341 330 327 258 226 219
331 285 283 289 295 243 210 237 270 352 246 246 268 250 188 219 218 353 156 106 55 336 8 30 45 23 148 25 142 110 11 63 101 65 341 72 355 335 346 1 351 339 316 255 219